Satellite: METEOR-M Catalog number: 35865 Epoch time: 11076.73893655 Element set: 195 Inclination: 098.7178 deg RA of node: 133.0084 deg Eccentricity: 0.0001950 Arg of perigee: 314.5788 deg Mean anomaly: 045.5188 deg Mean motion: 14.21835242 rev/day Decay rate: 1.76e-06 rev/day^2 Epoch rev: 7759 Checksum: 328
Satellite: RS-38 Catalog number: 35869 Epoch time: 11076.75002460 Element set: 203 Inclination: 098.7156 deg RA of node: 133.0588 deg Eccentricity: 0.0004107 Arg of perigee: 303.5164 deg Mean anomaly: 056.5601 deg Mean motion: 14.22002745 rev/day Decay rate: 1.77e-06 rev/day^2 Epoch rev: 7760 Checksum: 279
/EX
participants (1)
-
Ray Hoad